Weather in Al Mahwit

Yemen     15°28′19″N   43°32′30″E
temp.,
°C
wind,
m/s
gust,
m/s
humid.,
%
clouds,
%
prec.,
mm/h
press.,
hPa
HPBL,
m
2 december, thu
thu200:00+20ese11750 0.0 101595
03:00+20nnw117222 0.1 101415
06:00+19ene11700 0.1 101522
09:00+22nw11500 0.1 1016696
12:00+24wnw43464 0.0 10141551
15:00+24wnw434665 0.1 10121384
18:00+22nw44597 0.0 1014690
21:00+20nnw11715 0.1 1016259
3 december, fri
fri300:00+20n11741 0.0 101695
03:00+19n01740 0.0 101412
06:00+18ne11740 0.0 101611
09:00+21nw21630 0.0 1018439
12:00+23wnw42595 0.0 10161041
15:00+24wnw435518 0.0 10141096
18:00+22wnw33677 0.0 1016666
21:00+20nw11811 0.0 1018269
4 december, sat
sat400:00+20nw00790 0.0 1017144
03:00+19nne11701 0.0 101623
06:00+18nne11680 0.0 101814
09:00+21wnw11460 0.0 1019478
12:00+24wnw43430 0.0 10161244
15:00+24nw424815 0.0 10141377
18:00+22wnw32644 0.1 1015683
21:00+20nw118129 0.1 1018402
5 december, sun
sun500:00+20se01798 0.0 1017234
03:00+20ne00722 0.1 101622
06:00+19ene11680 0.0 101711
09:00+22wnw11480 0.0 1018527
12:00+25wnw434910 0.0 10151426
15:00+25wnw425143 0.0 10131369
18:00+23wnw32557 0.0 1014692
21:00+21nw21740 0.0 1017360
6 december, mon
mon600:00+20ene11750 0.0 1016104
03:00+19nne11790 0.0 101518
06:00+19nnw11790 0.0 101611
09:00+22wnw11610 0.0 1017428
12:00+24wnw42570 0.0 1015995
15:00+24nw43525 0.0 10131055
18:00+23wnw32571 0.0 1015690
21:00+20nw21795 0.0 1017338